Regional Weather Roundup
Issued by NWS

Home | Current Version | Previous Version | Graphics & Text | Print | Product List | Glossary On
Versions: 1 2 3 4 5 6 7 8 9 10 11 12 13 14 15 16 17 18 19 20 21 22 23 24 25 26 27 28 29 30 31 32 33 34 35 36 37 38 39 40 41 42 43 44 45 46 47 48 49 50
000
ASUS43 KOAX 281710
RWRNE

WEATHER ROUNDUP FOR NEBRASKA
NATIONAL WEATHER SERVICE OMAHA NE
1200 PM CDT TUE APR 28 2015

NOTES: SATELLITE DATA IS BEING USED TO AUGMENT CLOUD COVER ABOVE
       12000 FEET.
       "FAIR" INDICATES FEW OR NO CLOUDS BELOW 12,000 FEET WITH NO
       SIGNIFICANT WEATHER AND/OR OBSTRUCTIONS TO VISIBILITY.

  * THESE STATIONS DO NOT REPORT WEATHER SUCH AS RAIN...SNOW OR FOG.

NEZ001>004-019>022-054>056-281800-
NEBRASKA PANHANDLE

CITY           SKY/WX    TMP DP  RH WIND       PRES   REMARKS
SCOTTSBLUFF    MOSUNNY   51  42  71 VRB3      30.32F
ALLIANCE       PTSUNNY   52  42  69 CALM      30.31F
CHADRON        MOSUNNY   56  42  59 W3        30.31F
KIMBALL        CLOUDY    49  41  73 SW5       30.33S
SIDNEY         CLOUDY    52  43  71 VRB3      30.35S
$$

NEZ057>060-069>072-079>082-281800-
SOUTHWEST NEBRASKA

CITY           SKY/WX    TMP DP  RH WIND       PRES   REMARKS
NORTH PLATTE   MOSUNNY   60  41  49 N8        30.31F
IMPERIAL       SUNNY     58  40  51 VRB3      30.32F
LEXINGTON      SUNNY     61  46  58 N7        30.29S
MCCOOK         SUNNY     62  41  46 NE9       30.29F
OGALLALA       MOSUNNY   56  41  56 N5        30.32F
$$

NEZ005>010-023>029-035>040-094-281800-
NORTH CENTRAL NEBRASKA

CITY           SKY/WX    TMP DP  RH WIND       PRES   REMARKS
VALENTINE      CLOUDY    54  38  54 N12       30.32F
AINSWORTH      MOSUNNY   56  40  54 N10G18    30.31F
BROKEN BOW     SUNNY     61  40  45 N14       30.28F
O`NEILL        SUNNY     58  43  56 NW9G17    30.28F
ORD            SUNNY     59  42  53 NW15      30.26F
THEDFORD       CLOUDY    55  41  59 N9        30.32F
$$

NEZ041-046>049-061>064-073>077-083>087-281800-
SOUTH CENTRAL NEBRASKA

CITY           SKY/WX    TMP DP  RH WIND       PRES   REMARKS
GRAND ISLAND   SUNNY     62  45  53 N14G21    30.26F
AURORA         SUNNY     61  44  53 N12       30.25F
HASTINGS       MOSUNNY   60  46  59 N14       30.25F
HEBRON         SUNNY     65  38  36 N10       30.22F
HOLDREGE       SUNNY     60  42  50 N12G17    30.27F
KEARNEY *      SUNNY     61  45  55 N14G20    30.27F
YORK           SUNNY     63  45  51 N12       30.24S
$$

NEZ011>018-030>034-042>045-281800-
NORTHEAST NEBRASKA

CITY           SKY/WX    TMP DP  RH WIND       PRES   REMARKS
NORFOLK        SUNNY     61  44  53 NW17      30.22F
ALBION         SUNNY     60  44  55 N15       30.25F
BLAIR          SUNNY     64  39  39 N9        30.19F
COLUMBUS *     SUNNY     63  43  48 N12       30.25F
FREMONT        MOSUNNY   66  42  41 NW9       30.21S
TEKAMAH        MOSUNNY   67  42  40 N9        30.19F
WAYNE          PTSUNNY   62  44  52 NW13G20   30.22F
$$

NEZ050>053-065>068-078-088>093-281800-
SOUTHEAST NEBRASKA

CITY           SKY/WX    TMP DP  RH WIND       PRES   REMARKS
LINCOLN        SUNNY     67  41  38 NW8       30.21F
OMAHA EPPLEY   PTSUNNY   67  39  35 N7        30.19F
BEATRICE       SUNNY     67  32  26 N8        30.20F
FALLS CITY     SUNNY     68  38  33 N10       30.17F
NEBRASKA CITY  SUNNY     67  23  19 NE12      30.19F
PLATTSMOUTH    SUNNY     67  27  22 NW7       30.19F
$$

NEZ044-045-051>053-067-281800-
OMAHA AREA

CITY           SKY/WX    TMP DP  RH WIND       PRES   REMARKS
OMAHA EPPLEY   PTSUNNY   67  39  35 N7        30.19F
BLAIR          SUNNY     64  39  39 N9        30.19F
FREMONT        MOSUNNY   66  42  41 NW9       30.21S
MILLARD        SUNNY     65  42  43 NW7       30.19F
OFFUTT AFB     SUNNY     68  40  36 NW9G17    30.18F
PLATTSMOUTH    SUNNY     67  27  22 NW7       30.19F
WAHOO          FAIR      66  38  35 N9        30.20F
$$


USA.gov is the U.S. government's official web portal to all federal, state and local government web resources and services.